This is the latest recevied weather packets stored in our database for station/object KB7STN. If no packets are shown the sender has not sent any weather packets the latest 10 day(s).
| Time | Temp. | Humidity | Pressure | Rain* | Wind** | Luminosity | Snow |
|---|---|---|---|---|---|---|---|
| 1778026336 | 13.89° C | 52% | 1000.8 hPa | 0 mm | - | - | - |
| 1778026036 | 13.89° C | 52% | 1000.7 hPa | 0 mm | - | - | - |
| 1778025736 | 13.89° C | 52% | 1000.8 hPa | 0 mm | - | - | - |
| 1778025436 | 13.89° C | 52% | 1000.9 hPa | 0 mm | - | - | - |
| 1778025136 | 13.33° C | 53% | 1000.8 hPa | 0 mm | - | - | - |
| 1778024836 | 13.33° C | 53% | 1000.8 hPa | 0 mm | - | - | - |
| 1778024536 | 13.33° C | 54% | 1000.9 hPa | 0 mm | - | - | - |
| 1778024237 | 13.33° C | 52% | 1000.8 hPa | 0 mm | - | - | - |
| 1778023936 | 13.89° C | 52% | 1000.8 hPa | 0 mm | - | - | - |
| 1778023636 | 13.33° C | 53% | 1000.8 hPa | 0 mm | - | - | - |
| 1778023337 | 13.33° C | 54% | 1000.9 hPa | 0 mm | - | - | - |
| 1778023037 | 13.33° C | 54% | 1000.9 hPa | 0 mm | - | - | - |
| 1778022736 | 13.33° C | 56% | 1001 hPa | 0 mm | - | - | - |
| 1778022437 | 13.33° C | 56% | 1001 hPa | 0 mm | - | - | - |
| 1778022136 | 12.78° C | 57% | 1001 hPa | 0 mm | - | - | - |
| 1778021836 | 12.78° C | 58% | 1001.1 hPa | 0 mm | - | - | - |
| 1778021536 | 12.22° C | 61% | 1001.1 hPa | 0 mm | - | - | - |
| 1778021236 | 12.22° C | 62% | 1001.2 hPa | 0 mm | - | - | - |
| 1778020937 | 11.67° C | 61% | 1001.2 hPa | 0 mm | - | - | - |
| 1778020637 | 11.67° C | 61% | 1001.3 hPa | 0 mm | - | - | - |
| 1778020337 | 11.67° C | 62% | 1001.5 hPa | 0 mm | - | - | - |
| 1778020037 | 11.67° C | 60% | 1001.6 hPa | 0 mm | - | - | - |
| 1778019737 | 11.67° C | 61% | 1001.6 hPa | 0 mm | - | - | - |
| 1778019437 | 11.67° C | 60% | 1001.6 hPa | 0 mm | - | - | - |
| 1778019137 | 12.22° C | 58% | 1001.6 hPa | 0 mm | - | - | - |
* Rain latest hour (hover to see other rain measurements)
** Current wind speed in m/s (hover to see current wind gust speed)